Location: Brivio
(45.7333°N, 9.4500°E)
Time: 02:28:37
(UTC+00:00)

YAOGAN 1 - Pass Details

Date: 18 October 2019
Orbit: 619 x 621 km, 98.0° (Epoch: 12 November)

Event Time Altitude Azimuth Distance (km) Brightness Sun altitude
Rises 18:23:10 0° 187° (S) 2,884 6.0 -20.1°
Reaches altitude 10° 18:25:30 10° 196° (SSW) 1,983 5.2 -20.5°
Maximum altitude 18:29:28 35° 263° (W) 999 4.2 -21.2°
Drops below altitude 10° 18:33:28 10° 330° (NNW) 1,997 5.7 -21.9°
Sets 18:35:50 0° 339° (NNW) 2,908 6.4 -22.3°
